Temp
21 21 22 21 22 20 20 21 20 22 24 24 23 25 26 26 26 27 19 19 20 20 20 21 20 20 20 20 20 20 20 20 20 19 19 18 17 17 17 17 17 17 18 17 17 17 17 17 17
20 22 21 18 21 20 21 20 21 22 23 21 22 24 25 27 23 19 19 19 20 20 20 20 20 20 20 20 20 20 20 20 20 18 18 17 17 17 17 17 17 17 18 17 17 16 16 17 16
21 22 21 20 19 20 21 20 21 22 21 23 24 24 24 25 22 20 20 19 19 20 20 20 20 19 19 20 20 20 20 20 19 18 18 17 17 17 17 16 17 17 18 18 16 16 16 16 16
20 19 18 20 19 19 21 22 21 22 23 23 23 25 24 22 22 21 21 19 18 19 19 19 19 19 18 19 19 19 20 19 20 19 17 17 17 17 16 16 16 16 16 16 16 16 17 16 16
19 18 18 18 19 19 19 20 21 22 22 23 22 25 25 21 20 20 20 19 19 19 19 19 19 19 18 18 18 18 19 19 19 18 17 17 17 17 16 16 16 16 16 16 16 16 16 16 16
17 17 18 19 19 19 19 20 21 22 22 23 23 23 24 20 18 19 19 18 19 19 19 19 19 18 18 18 18 18 18 19 18 18 17 17 17 16 16 16 16 16 16 16 16 16 16 16 17
17 17 19 18 20 19 20 20 21 22 22 24 23 25 24 20 18 18 18 19 19 19 18 18 18 18 18 18 18 18 18 18 18 18 18 17 17 16 16 16 16 16 17 16 16 16 16 17 17
16 18 16 17 19 20 20 20 21 21 23 22 22 24 25 20 18 17 18 19 19 19 19 18 18 17 18 17 18 18 18 18 18 17 17 17 17 17 16 17 16 16 17 17 16 16 17 17 17
14 17 16 18 17 19 19 20 20 20 21 21 22 22 20 19 17 17 17 18 18 18 18 18 18 18 19 18 18 18 18 17 17 17 17 17 17 17 17 17 17 17 17 16 16 16 17 17 17
16 16 16 17 18 19 19 20 20 21 20 21 21 20 17 17 17 18 18 18 17 18 18 18 18 18 18 18 18 18 18 17 17 17 17 17 17 17 17 17 17 17 16 16 16 16 16 16 17
15 16 17 18 18 19 19 19 19 20 20 20 20 20 19 17 18 18 18 18 18 18 17 17 17 17 18 18 18 18 18 18 17 18 17 17 17 17 16 16 16 16 16 16 16 16 17 17 17
16 16 17 18 18 18 18 19 19 19 20 20 19 19 20 19 18 18 18 18 18 18 17 17 17 17 17 17 18 18 18 18 17 18 18 17 17 17 16 16 16 16 16 16 16 16 16 17 17
16 16 17 18 17 18 18 18 19 18 18 18 18 18 20 20 20 19 18 18 18 18 18 18 17 17 18 17 18 18 18 18 18 17 17 17 17 17 17 16 16 16 16 16 16 16 16 16 16
16 17 17 17 17 18 17 17 17 18 17 18 17 18 19 19 20 19 19 19 18 18 18 17 17 17 17 18 17 18 18 18 18 18 17 17 17 17 17 16 16 16 16 16 16 16 16 16 16
15 16 16 16 17 17 17 17 16 18 18 18 18 17 18 18 18 19 21 21 21 20 19 18 17 17 17 17 18 17 18 18 18 18 18 17 17 17 17 16 16 16 16 16 15 16 16 16 15
15 16 15 16 16 17 18 17 18 17 16 17 17 16 16 17 17 18 19 20 21 21 20 20 19 18 18 17 18 18 18 18 18 18 18 17 17 17 17 16 16 16 16 16 15 15 15 15 15
14 13 14 16 16 16 16 15 17 16 16 17 17 17 16 16 16 18 20 20 21 21 21 21 19 19 18 18 18 18 18 18 18 18 18 18 17 17 16 17 17 16 16 15 15 15 15 15 14
13 14 14 15 16 15 15 14 15 16 15 16 16 16 16 16 17 18 19 20 20 21 20 21 21 20 20 17 17 17 17 17 17 18 18 18 18 17 17 16 16 16 15 15 15 15 15 14 14
14 14 14 14 15 15 14 14 15 16 15 15 16 16 17 17 17 17 18 19 19 19 20 20 20 21 18 17 17 16 16 17 16 17 18 18 18 18 17 17 16 16 15 15 15 14 14 13 13
14 13 13 14 14 14 13 14 15 16 15 15 16 16 16 15 15 15 15 16 17 17 18 19 19 20 19 17 17 16 16 16 16 16 17 18 18 18 18 17 17 16 15 15 15 15 13 13 13
13 13 13 14 13 12 12 14 15 15 14 15 13 12 13 13 14 14 13 13 14 16 17 17 19 19 19 18 17 16 16 16 16 15 16 18 18 18 18 17 17 16 16 16 16 15 15 13 12
14 14 13 13 13 14 12 15 14 13 14 14 12 12 12 12 13 13 13 13 14 15 15 16 17 18 19 18 16 16 16 16 16 16 16 16 17 16 17 17 17 16 16 16 17 16 15 15 13
13 13 12 11 11 11 12 13 15 13 15 14 12 12 12 12 11 12 12 13 14 15 15 16 16 17 17 17 16 16 16 16 17 16 16 15 15 15 16 17 17 16 16 16 16 16 14 15 14
12 12 10 9 10 11 11 12 15 14 14 14 13 12 12 12 11 11 12 13 13 15 15 15 15 16 16 16 16 15 15 16 16 15 15 15 15 15 14 15 16 16 16 16 16 15 14 14 14
13 13 11 11 10 13 9 10 13 13 13 13 14 13 12 11 12 12 12 12 12 14 14 15 15 15 16 16 16 16 14 15 15 15 15 14 14 13 14 14 14 15 15 15 14 14 13 13 13
12 12 11 13 12 12 9 11 15 12 12 13 13 12 11 12 12 12 12 11 11 12 13 14 14 14 14 15 16 15 15 14 14 14 15 15 15 16 14 14 13 13 13 13 12 12 12 12 12
11 10 10 8 6 9 11 11 12 13 12 13 13 12 12 13 12 12 12 11 11 12 12 12 12 13 13 14 15 16 15 15 13 14 14 14 14 14 14 14 12 12 11 10 10 10 10 11 11
12 10 10 7 10 12 11 11 14 13 14 13 13 12 12 12 11 11 11 11 10 11 11 11 11 11 11 12 12 13 15 15 15 14 14 14 14 13 13 12 11 10 9 9 9 9 9 9 9
10 9 8 9 9 11 12 14 11 13 13 13 12 13 12 12 12 11 10 9 10 10 10 10 10 10 11 11 12 11 12 14 13 12 12 12 12 12 12 11 10 9 8 7 8 8 8 9 8
10 10 9 10 9 7 8 12 12 12 11 11 12 12 12 11 11 9 8 8 9 8 7 7 8 8 9 10 11 11 10 9 10 10 10 10 11 11 11 10 9 8 7 8 7 6 5 7 6
Height
804 804 804 806 824 830 836 827 820 815 810 802 801 800 798 794 798 807 792 794 796 800 805 809 812 816 818 820 822 824 826 828 830 832 835 837 837 838 839 840 841 843 843 843 844 846 847 848 848
803 803 805 814 829 838 832 823 820 813 804 802 800 797 797 795 791 793 793 794 797 801 805 809 812 815 818 820 822 824 827 829 831 833 836 838 839 839 840 841 842 844 845 845 846 848 848 849 850
803 803 809 818 833 834 829 818 813 808 804 801 799 795 795 794 792 792 792 794 798 802 806 809 813 815 818 820 822 825 826 829 831 834 836 838 840 841 842 843 844 845 846 847 848 849 850 850 852
802 805 815 822 827 824 816 810 811 810 803 800 799 799 793 793 792 792 793 796 800 803 806 809 813 815 817 820 822 825 827 829 832 834 837 839 841 842 843 844 844 845 847 849 849 850 851 851 852
801 807 823 829 823 817 814 810 808 809 809 803 802 800 796 793 793 793 794 797 800 804 807 811 813 816 817 819 822 825 827 830 832 834 837 840 842 843 844 844 845 846 848 849 851 852 853 853 854
805 809 824 824 819 816 812 807 808 806 806 802 802 801 796 794 795 795 796 799 802 805 809 812 815 816 817 819 822 824 827 830 832 835 837 840 842 843 845 846 847 848 849 851 852 853 853 853 853
802 808 814 818 813 816 810 804 805 804 803 802 797 801 794 795 796 796 798 801 804 807 810 813 815 817 819 820 821 824 827 830 832 834 837 840 842 843 845 846 848 849 851 852 853 853 853 853 853
800 803 818 816 811 810 803 803 799 802 801 797 796 801 797 796 797 798 799 802 804 807 810 813 815 817 819 821 821 824 826 830 832 834 837 839 841 843 845 847 848 850 852 852 853 853 853 853 854
799 808 813 807 812 806 801 803 799 798 800 798 796 797 796 795 797 799 800 802 805 807 809 812 814 817 818 820 822 824 826 829 831 834 837 839 841 843 844 846 848 850 851 853 854 854 854 854 855
797 805 806 800 798 800 799 799 799 800 803 800 798 798 797 797 798 799 799 800 803 806 808 811 813 816 818 819 821 824 825 827 829 832 835 837 839 841 843 846 847 849 851 852 853 853 854 855 855
797 798 797 796 795 794 798 800 798 799 802 798 799 798 796 798 799 801 801 803 804 806 808 810 812 814 816 818 820 822 824 826 828 830 833 836 838 840 842 844 846 847 849 850 851 852 853 854 854
796 794 793 792 793 796 800 798 800 798 795 794 796 796 796 796 799 800 802 803 805 805 807 808 811 812 814 816 818 820 821 824 826 827 830 833 836 838 841 843 844 845 846 847 849 851 851 852 853
794 794 792 790 793 795 796 800 799 798 794 793 795 795 795 796 796 797 799 802 804 804 805 805 808 809 811 813 814 817 819 821 824 826 829 831 833 835 837 840 841 843 844 845 847 849 850 851 851
790 791 792 790 793 794 799 800 801 795 791 792 795 795 795 794 794 795 796 797 797 799 801 803 804 806 807 809 811 813 816 817 820 822 825 828 830 832 834 836 838 841 842 844 846 847 848 849 850
791 797 795 794 795 795 796 800 800 790 791 791 791 794 793 792 792 792 792 793 792 792 795 796 799 801 803 804 806 808 811 813 814 817 821 823 826 828 831 833 835 838 839 842 844 844 846 847 847
793 796 802 792 793 793 795 800 790 790 794 793 791 791 792 789 789 789 788 788 788 788 789 790 792 794 796 798 801 802 805 807 809 812 815 818 821 825 827 829 831 833 836 839 841 842 843 844 845
797 803 803 795 791 793 796 802 792 792 792 792 789 787 788 786 784 782 782 783 782 783 784 785 787 788 790 792 794 797 799 802 804 806 809 812 815 820 822 824 827 830 833 835 837 838 840 841 843
796 799 800 797 794 797 801 802 795 788 791 791 787 783 783 782 778 777 777 777 777 778 779 779 781 782 783 787 790 793 795 796 798 799 801 804 807 811 816 819 823 825 828 831 833 835 837 839 841
788 794 796 796 795 797 799 801 793 787 788 787 782 779 775 776 776 775 774 773 772 772 772 773 774 775 778 780 784 786 787 788 789 791 793 796 800 803 807 811 815 819 822 825 829 831 834 835 838
789 796 799 798 797 798 801 797 782 780 780 780 779 777 775 777 776 775 772 769 767 767 767 768 768 769 770 773 775 779 780 781 781 783 785 788 791 794 798 802 807 811 816 820 823 826 828 831 834
792 794 799 798 799 803 805 790 781 779 780 780 782 781 778 778 777 774 771 768 764 762 762 762 762 763 764 767 770 773 775 776 778 778 778 779 782 785 789 793 799 804 808 811 815 819 821 823 828
790 791 796 799 802 803 809 797 783 785 781 784 786 783 781 780 777 775 771 767 764 761 758 756 755 756 758 760 763 765 767 768 769 769 769 771 773 777 783 786 790 795 799 803 804 808 810 813 817
792 795 801 806 811 811 811 807 780 785 782 785 786 784 782 780 778 774 771 768 764 760 757 754 751 751 753 754 757 756 757 758 761 763 765 767 768 771 773 776 779 785 789 794 796 797 802 806 809
793 798 811 820 819 817 816 811 783 784 784 784 785 783 780 777 776 773 769 765 762 759 756 753 751 749 750 751 752 754 754 753 754 756 757 758 760 763 766 770 771 775 779 783 785 791 795 798 802
792 794 816 817 824 804 822 818 787 786 784 782 781 779 777 775 773 770 766 763 759 757 754 752 750 749 748 747 746 748 749 751 753 752 751 753 754 754 755 760 763 766 770 773 778 784 789 792 796
796 795 808 796 806 805 824 806 778 783 781 779 780 777 776 772 770 768 765 763 760 757 755 751 749 747 746 745 743 743 743 743 744 744 744 745 746 747 751 752 754 757 762 768 771 777 783 788 792
799 807 810 829 846 827 807 800 784 779 780 779 776 774 770 766 765 764 763 761 759 756 753 751 748 745 744 742 741 739 738 738 737 737 739 740 741 741 742 745 748 751 756 761 766 771 776 782 788
791 804 809 829 822 803 800 802 779 780 776 776 776 774 771 768 766 764 762 760 757 753 752 750 748 746 744 741 739 737 735 732 732 732 732 734 735 736 739 742 745 748 752 756 762 765 771 779 784
801 805 814 817 822 806 796 780 781 775 773 772 771 769 768 765 763 763 762 759 756 753 751 749 747 745 743 741 738 735 732 729 728 728 728 729 731 733 736 738 740 744 749 753 758 762 766 765 781
795 799 804 809 823 832 825 786 773 777 776 775 771 768 765 764 764 763 762 759 757 755 752 750 747 743 741 739 736 734 731 729 726 725 727 728 729 730 731 734 737 741 744 749 754 759 765 767 776
Wind_Speed
5 2 3 4 2 2 2 4 2 2 1 1 4 3 3 1 4 2 1 13 19 29 25 21 19 17 17 15 15 15 16 14 13 12 9 9 9 8 8 9 9 9 10 16 17 16 12 10 9
4 2 4 2 3 2 3 3 4 5 3 9 4 2 2 1 0 2 7 12 22 29 23 21 20 19 18 16 16 15 14 13 11 12 12 10 9 9 9 10 10 11 9 12 12 11 10 8 10
5 4 2 3 3 6 4 5 5 3 6 1 2 1 2 1 0 7 3 17 24 27 24 21 21 20 19 19 18 16 16 14 13 14 12 10 9 10 10 11 11 12 11 9 9 8 9 9 9
6 3 3 2 8 5 5 1 4 4 1 4 3 3 2 1 1 6 13 21 24 25 23 22 21 19 18 19 19 17 16 14 13 13 13 11 10 11 11 12 12 12 11 8 8 8 9 9 9
4 2 3 2 7 3 4 3 2 2 3 4 4 2 3 3 2 9 18 22 25 24 23 20 20 19 18 16 16 17 16 16 15 14 14 12 11 11 11 11 12 11 10 10 10 10 10 8 7
3 2 3 9 9 3 4 4 1 2 1 5 1 2 2 1 4 11 16 19 22 23 22 19 19 18 17 15 14 14 12 17 15 15 14 12 12 11 11 10 10 10 10 10 10 10 8 7 6
6 4 7 5 11 5 5 4 3 3 2 3 1 1 1 2 5 12 15 16 20 21 21 20 19 17 16 15 16 18 16 17 17 16 14 13 12 11 10 9 9 10 9 9 9 8 6 6 6
4 3 7 5 7 8 4 6 3 5 3 1 2 3 1 2 9 13 15 16 19 21 21 21 19 17 16 15 16 17 18 16 17 16 15 15 13 10 9 9 9 10 9 8 7 5 6 6 6
3 3 6 10 8 4 4 4 1 1 0 2 2 2 6 3 14 14 14 15 18 20 21 22 21 18 17 17 16 16 16 18 17 15 16 16 13 11 10 9 9 10 7 7 6 5 5 5 5
4 5 9 5 5 4 6 4 3 2 2 2 2 4 5 10 13 15 14 15 17 18 19 21 21 20 19 18 17 17 18 18 18 19 19 19 17 16 13 10 9 10 8 7 6 6 4 3 2
5 5 5 4 4 4 6 2 3 4 3 3 3 1 3 5 7 10 11 11 14 16 17 20 18 21 21 19 20 19 20 20 20 21 21 19 18 17 15 13 12 12 11 10 8 7 5 3 2
4 4 5 3 5 4 4 5 2 4 4 4 4 2 1 6 7 7 9 10 13 17 17 18 18 18 23 21 22 22 22 22 23 22 22 21 19 18 19 18 15 14 14 12 10 9 7 5 3
2 4 4 2 1 2 3 3 5 6 5 5 4 3 4 2 5 11 13 13 13 15 18 22 21 22 22 26 24 24 25 25 25 24 23 21 20 18 20 20 17 15 14 13 12 11 9 6 4
8 4 3 1 2 1 4 4 4 5 4 5 3 8 8 8 8 5 8 13 18 20 20 20 23 25 26 26 27 27 27 26 26 26 26 24 22 20 21 22 19 17 15 14 13 12 10 8 6
6 4 2 4 4 3 4 5 6 11 6 9 9 8 9 10 10 15 16 14 15 19 22 25 25 25 28 29 28 30 30 28 28 29 28 28 26 24 23 23 21 19 17 16 16 14 12 10 7
5 3 4 2 7 4 6 8 4 2 3 9 11 9 10 13 15 19 22 21 22 20 19 23 26 27 30 31 31 29 31 31 30 30 29 30 29 29 27 26 24 21 20 19 18 17 15 11 9
2 4 4 3 7 3 7 2 4 1 2 8 9 9 8 10 12 21 23 22 23 24 25 25 24 27 29 31 31 31 31 32 33 32 31 31 31 32 31 29 25 24 23 22 21 19 16 13 11
6 4 3 6 2 2 3 6 8 10 3 8 10 11 10 10 14 18 21 22 21 21 22 25 28 27 31 29 25 28 29 33 34 35 33 33 33 33 33 32 29 28 27 25 24 21 18 14 12
6 5 3 2 1 1 4 4 10 11 6 10 12 13 12 9 7 14 18 20 20 23 24 24 26 32 28 25 26 27 29 34 33 39 37 35 34 33 33 35 33 32 33 30 27 23 18 14 15
5 5 3 1 2 0 3 10 16 11 6 5 7 9 9 5 7 9 13 15 16 19 21 23 26 27 33 29 29 26 28 27 34 33 38 38 37 36 35 38 38 35 34 32 30 28 22 15 21
3 4 3 2 2 2 5 5 5 2 2 3 8 5 6 4 5 7 11 13 10 12 16 19 25 26 29 31 29 25 23 24 22 28 34 40 41 41 37 40 41 39 38 37 35 34 30 24 26
5 3 4 4 2 2 4 4 6 2 3 5 7 9 9 7 5 5 8 13 19 18 11 11 18 24 24 28 28 27 26 24 25 28 34 35 41 42 41 41 43 43 43 42 38 41 40 33 26
4 5 4 3 4 2 2 2 4 1 3 4 3 4 4 3 4 5 7 12 19 21 19 12 9 15 21 23 29 30 29 29 28 29 29 31 35 40 44 44 45 47 46 46 45 45 43 39 31
10 6 6 4 2 1 1 2 3 1 3 0 1 1 4 6 5 5 8 13 19 21 22 18 10 6 11 16 22 23 26 26 24 28 28 29 35 38 42 45 46 48 48 49 50 45 44 43 32
2 4 1 2 1 3 1 1 6 4 4 3 3 4 6 6 5 7 9 14 20 22 22 21 18 11 7 7 12 22 25 25 23 26 28 24 25 33 43 46 46 48 50 50 48 46 44 42 37
2 4 3 4 3 2 2 5 2 4 4 3 2 4 6 6 5 7 8 12 14 17 18 19 18 17 12 10 10 11 17 23 23 29 31 32 35 36 35 42 45 46 46 46 46 45 42 38 37
4 2 3 6 2 1 2 5 5 2 4 0 3 7 10 9 8 8 12 13 14 15 17 16 16 15 14 13 13 12 13 15 21 23 27 30 31 32 32 36 40 42 40 39 40 36 37 35 33
2 6 3 2 3 3 3 4 3 4 4 3 4 6 7 5 7 8 12 17 16 16 12 14 13 13 14 14 14 16 15 14 17 20 23 26 28 29 29 28 31 31 32 32 33 35 32 30 30
2 2 5 3 2 3 1 4 5 6 3 4 7 10 8 7 8 10 13 16 16 18 17 18 17 17 19 19 17 15 14 13 11 15 17 20 21 22 24 24 25 27 25 26 30 30 34 36 29
1 4 4 3 4 1 0 5 0 4 4 4 9 9 6 7 9 11 14 15 15 15 16 17 19 18 17 17 17 15 12 10 8 8 11 13 15 16 18 20 21 22 24 28 30 27 28 31 28
Wind_Direction
242 319 8 33 69 58 267 256 282 258 257 234 288 201 219 217 176 207 249 162 162 161 161 168 166 164 163 165 162 161 159 159 160 150 148 142 129 118 111 116 117 120 95 96 104 100 101 95 88
215 138 66 88 124 175 259 249 233 238 297 307 265 236 249 212 98 88 113 173 162 161 162 165 168 164 164 161 168 168 167 168 172 155 149 142 128 117 114 115 118 125 118 105 104 102 102 93 99
170 125 105 131 152 196 218 223 218 293 315 313 329 264 307 347 120 167 166 161 161 163 165 162 168 168 168 169 168 168 166 167 168 157 151 142 131 126 124 123 126 131 148 159 114 109 100 102 106
157 59 64 159 220 238 210 191 169 342 278 21 346 305 310 359 331 178 154 157 161 164 165 163 170 171 170 176 174 174 177 171 171 168 153 144 138 135 134 131 128 138 149 135 125 119 115 113 116
84 69 125 193 240 236 245 251 237 311 299 302 348 304 284 36 80 150 158 162 166 168 169 165 172 174 176 174 176 178 179 172 175 169 154 149 146 144 139 134 128 126 126 125 120 114 111 113 114
86 116 149 209 227 198 250 236 221 227 235 298 297 290 265 333 135 142 154 163 173 170 170 168 177 184 177 176 173 170 170 181 175 172 160 156 153 149 144 138 132 130 126 127 125 121 127 122 116
138 149 200 193 233 250 216 174 225 225 232 261 230 237 234 175 164 150 152 158 172 174 173 175 184 186 179 176 172 167 169 176 173 170 169 167 165 156 150 145 140 136 133 135 131 134 125 116 110
125 123 163 204 208 244 198 181 183 174 242 313 183 223 279 42 154 156 158 166 171 178 181 186 191 185 182 181 183 180 181 184 184 184 180 175 176 168 162 156 150 147 148 141 147 141 137 110 103
153 132 198 199 172 209 164 170 177 18 153 288 193 348 321 198 158 154 153 157 176 184 188 192 194 194 192 191 188 184 183 181 183 182 180 181 178 180 177 172 161 156 153 158 162 155 146 119 106
159 189 204 190 182 190 162 168 181 133 13 239 125 5 46 155 167 168 174 175 181 187 194 199 200 202 201 197 195 194 189 188 187 186 185 191 191 194 197 186 173 165 167 174 171 174 175 176 140
163 205 171 205 192 146 154 163 182 129 271 214 135 24 82 147 183 190 198 197 192 194 199 203 203 209 208 206 203 203 199 196 194 193 196 199 204 205 203 196 190 181 186 189 189 181 182 184 174
142 196 179 152 188 139 164 140 166 200 206 162 142 335 65 165 205 210 216 217 208 205 209 208 208 209 215 215 213 212 209 207 206 203 203 206 208 211 211 206 201 197 195 195 195 195 190 192 190
144 180 186 154 114 165 137 196 229 245 251 261 286 259 276 267 214 212 219 224 221 219 218 215 213 214 217 221 220 220 217 217 216 214 213 213 213 213 208 208 209 208 204 200 201 199 197 199 204
175 167 163 189 221 216 170 222 150 263 270 266 226 256 260 264 245 237 213 220 222 224 223 221 221 221 222 224 225 225 225 224 222 221 220 220 219 215 208 209 211 213 211 208 207 203 203 204 210
134 130 283 239 199 232 158 271 228 239 252 266 272 252 263 248 262 251 253 247 241 236 233 228 221 220 224 226 224 230 228 229 228 227 225 224 223 219 216 215 214 216 216 213 208 206 204 206 205
117 94 162 229 165 226 141 262 258 249 221 270 277 269 266 267 262 266 269 263 262 259 247 242 236 229 225 226 226 226 236 230 232 232 230 228 227 225 221 220 218 218 217 214 210 206 202 204 200
165 182 186 305 185 130 198 234 230 239 216 270 276 275 253 267 269 268 267 266 265 256 252 249 240 235 230 227 228 226 236 236 234 234 232 232 229 228 226 224 223 220 219 214 210 205 206 203 201
153 134 171 199 156 140 186 257 270 290 244 248 268 270 261 250 253 265 272 272 262 256 251 249 247 240 239 233 223 230 230 241 238 237 234 233 230 228 227 227 226 222 219 214 210 209 203 205 196
130 128 157 197 80 213 229 248 269 263 250 249 249 256 263 269 282 282 289 286 273 262 256 251 246 241 233 221 221 224 222 232 233 239 236 233 231 229 226 228 225 223 218 216 212 204 203 192 188
109 132 186 317 40 182 349 286 263 256 245 252 273 279 281 314 329 328 318 301 284 276 268 261 254 247 237 226 218 216 224 229 231 233 235 237 232 229 225 226 224 220 214 212 210 208 198 199 190
111 154 158 154 336 81 315 282 294 26 60 28 28 3 38 35 31 18 5 7 345 294 280 266 256 253 243 229 222 216 227 227 228 228 233 235 236 232 225 224 222 218 213 212 214 214 215 197 198
151 163 121 113 88 255 354 297 289 40 59 66 35 49 56 46 29 13 357 0 10 6 337 281 259 248 245 236 220 215 221 227 226 225 231 229 234 232 227 226 222 219 216 216 213 218 216 209 194
129 111 99 85 89 20 17 125 273 9 110 53 41 34 16 344 326 340 339 353 4 7 8 356 285 252 242 241 226 218 218 224 228 230 233 233 234 228 228 225 223 222 220 219 217 216 214 215 208
148 77 56 59 83 20 243 186 296 139 141 333 256 288 313 327 326 311 340 1 358 358 2 4 353 335 264 254 241 236 236 230 225 227 228 227 232 228 226 226 225 224 221 221 222 221 219 216 214
213 120 34 17 41 213 47 192 249 265 248 212 239 290 323 325 328 343 356 353 348 349 349 349 348 334 320 301 261 244 243 247 248 237 229 223 221 219 224 225 223 224 227 223 222 221 222 220 215
140 141 166 187 181 224 96 230 227 230 274 323 205 286 292 318 328 340 342 333 337 337 340 338 334 327 324 311 299 278 256 250 252 250 241 234 237 243 237 229 223 223 224 223 223 221 221 221 217
180 120 134 105 45 27 232 280 302 323 102 320 240 329 336 340 349 343 338 333 337 337 334 343 334 319 313 311 308 292 279 267 250 252 255 249 246 246 241 237 227 225 222 219 218 215 217 217 214
115 139 97 15 128 242 266 275 223 237 215 233 273 321 315 310 334 339 344 333 339 339 327 339 3 355 337 326 317 306 293 278 269 263 260 258 255 250 247 242 231 221 217 214 213 212 212 210 205
130 100 60 101 99 185 278 264 207 200 205 299 331 322 313 325 348 350 336 329 334 345 344 336 340 334 333 341 341 328 311 293 275 271 267 262 259 253 248 239 228 217 208 205 207 206 205 195 196
156 158 144 133 223 59 41 272 265 235 273 249 296 302 323 353 352 342 333 335 349 360 359 355 344 340 333 330 335 340 338 320 311 290 286 273 255 242 234 230 222 213 208 211 208 198 190 185 176